Външен сензор Measurements

Back to Overview

Timestamp Temperature Humidity
8/7/2020 9:45:51 PM 15,5 C 89.1%
8/7/2020 9:38:49 PM 15,8 C 87.5%
8/7/2020 9:31:49 PM 15,9 C 86.4%
8/7/2020 9:24:47 PM 16,0 C 85.4%
8/7/2020 9:17:45 PM 16,2 C 84.0%
8/7/2020 9:10:44 PM 16,4 C 82.6%
8/7/2020 9:03:43 PM 16,6 C 81.0%
8/7/2020 8:56:41 PM 16,6 C 80.9%
8/7/2020 8:49:39 PM 16,6 C 79.9%
8/7/2020 8:42:37 PM 16,7 C 79.6%
8/7/2020 8:35:36 PM 16,7 C 79.0%
8/7/2020 8:28:34 PM 16,9 C 78.6%
8/7/2020 8:21:32 PM 17,1 C 77.8%
8/7/2020 8:14:30 PM 17,5 C 77.2%
8/7/2020 8:07:28 PM 17,7 C 76.8%
8/7/2020 8:00:26 PM 17,8 C 77.6%
8/7/2020 7:53:24 PM 18,0 C 77.6%
8/7/2020 7:46:23 PM 18,1 C 76.8%
8/7/2020 7:39:21 PM 18,2 C 75.0%
8/7/2020 7:32:20 PM 18,3 C 74.9%
8/7/2020 7:25:17 PM 18,5 C 74.6%
8/7/2020 7:18:16 PM 18,6 C 74.3%
8/7/2020 7:11:14 PM 18,7 C 74.1%
8/7/2020 7:04:12 PM 18,7 C 74.8%
8/7/2020 6:57:11 PM 18,8 C 73.6%
8/7/2020 6:50:09 PM 19,1 C 72.2%
8/7/2020 6:43:07 PM 19,3 C 70.2%
8/7/2020 6:36:06 PM 19,8 C 69.8%
8/7/2020 6:29:04 PM 19,8 C 69.3%
8/7/2020 6:22:02 PM 19,7 C 67.5%
8/7/2020 6:15:00 PM 20,1 C 67.2%
8/7/2020 6:07:58 PM 20,2 C 67.5%
8/7/2020 6:01:41 PM 20,2 C 64.4%
8/7/2020 5:54:39 PM 20,0 C 67.1%
8/7/2020 5:47:38 PM 20,1 C 67.5%
8/7/2020 5:40:35 PM 20,2 C 66.1%
8/7/2020 5:33:33 PM 20,3 C 66.2%
8/7/2020 5:26:31 PM 20,5 C 65.3%
8/7/2020 5:19:26 PM 20,7 C 64.1%
8/7/2020 5:12:28 PM 21,0 C 63.2%
8/7/2020 5:05:25 PM 21,4 C 64.1%
8/7/2020 4:58:24 PM 21,7 C 63.6%
8/7/2020 4:51:22 PM 22,3 C 64.4%
8/7/2020 4:44:20 PM 22,8 C 63.4%
8/7/2020 4:39:33 PM 23,2 C 59.6%
8/7/2020 4:32:31 PM 23,1 C 58.6%
8/7/2020 4:32:00 PM 22,9 C 61.8%
8/7/2020 4:30:29 PM 22,3 C 65.4%
8/7/2020 4:28:42 PM 21,6 C 65.8%
8/7/2020 4:24:56 PM 20,9 C 67.8%
8/7/2020 4:17:55 PM 21,1 C 65.7%
8/7/2020 4:10:52 PM 21,6 C 65.6%
8/7/2020 4:03:50 PM 22,0 C 65.4%
8/7/2020 3:56:49 PM 22,5 C 63.8%
8/7/2020 3:51:17 PM 23,1 C 62.7%
8/7/2020 3:44:15 PM 23,4 C 61.6%
8/7/2020 3:39:29 PM 23,2 C 58.4%
8/7/2020 3:32:26 PM 22,9 C 62.5%
8/7/2020 3:29:25 PM 22,1 C 65.0%
8/7/2020 3:22:23 PM 21,9 C 65.1%
8/7/2020 3:15:21 PM 21,5 C 65.8%
8/7/2020 3:12:50 PM 21,8 C 62.6%
8/7/2020 3:09:19 PM 22,5 C 61.5%
8/7/2020 3:04:46 PM 23,2 C 61.3%
8/7/2020 2:57:44 PM 22,8 C 61.6%
8/7/2020 2:55:13 PM 22,8 C 58.3%
8/7/2020 2:53:27 PM 22,9 C 61.5%
8/7/2020 2:46:25 PM 23,3 C 59.9%
8/7/2020 2:39:23 PM 23,2 C 58.9%
8/7/2020 2:38:22 PM 23,1 C 62.0%
8/7/2020 2:31:19 PM 23,1 C 61.0%
8/7/2020 2:28:33 PM 23,7 C 57.9%
8/7/2020 2:21:32 PM 23,7 C 61.0%
8/7/2020 2:14:30 PM 23,5 C 59.9%
8/7/2020 2:09:44 PM 22,9 C 63.5%
8/7/2020 2:03:27 PM 22,7 C 60.1%
8/7/2020 1:58:42 PM 22,4 C 63.4%
8/7/2020 1:56:10 PM 22,4 C 60.0%
8/7/2020 1:49:53 PM 23,1 C 59.5%
8/7/2020 1:49:07 PM 23,1 C 63.6%
8/7/2020 1:47:36 PM 22,6 C 67.2%
8/7/2020 1:45:35 PM 21,9 C 67.6%
8/7/2020 1:40:03 PM 21,5 C 64.5%
8/7/2020 1:34:31 PM 22,2 C 62.0%
8/7/2020 1:30:00 PM 22,9 C 61.0%
8/7/2020 1:24:14 PM 23,6 C 59.3%
8/7/2020 1:20:58 PM 23,9 C 56.1%
8/7/2020 1:17:40 PM 23,6 C 60.0%
8/7/2020 1:12:54 PM 23,6 C 56.7%
8/7/2020 1:10:38 PM 24,3 C 55.9%
8/7/2020 1:07:22 PM 24,9 C 56.8%
8/7/2020 1:05:50 PM 24,7 C 60.2%
8/7/2020 1:02:50 PM 24,0 C 58.2%
8/7/2020 1:01:33 PM 23,8 C 61.4%
8/7/2020 12:59:17 PM 23,1 C 61.3%
8/7/2020 12:57:00 PM 22,4 C 62.9%
8/7/2020 12:54:14 PM 21,7 C 64.2%
8/7/2020 12:48:13 PM 22,1 C 61.0%
8/7/2020 12:44:57 PM 22,6 C 57.8%
8/7/2020 12:37:56 PM 23,0 C 57.1%
8/7/2020 12:33:24 PM 22,6 C 60.4%
8/7/2020 12:26:22 PM 23,1 C 60.3%
8/7/2020 12:19:20 PM 23,7 C 57.7%
8/7/2020 12:12:18 PM 24,3 C 56.1%
8/7/2020 12:11:32 PM 24,2 C 59.6%
8/7/2020 12:07:31 PM 23,5 C 60.5%
8/7/2020 12:00:29 PM 23,2 C 58.9%
8/7/2020 11:56:28 AM 23,6 C 55.0%
8/7/2020 11:49:56 AM 23,3 C 58.2%
8/7/2020 11:45:54 AM 23,1 C 61.4%
8/7/2020 11:44:38 AM 23,1 C 58.0%
8/7/2020 11:40:06 AM 22,4 C 62.0%
8/7/2020 11:37:20 AM 22,0 C 65.1%
8/7/2020 11:34:34 AM 22,0 C 61.7%
8/7/2020 11:33:18 AM 22,2 C 58.5%
8/7/2020 11:29:31 AM 22,0 C 62.5%
8/7/2020 11:27:30 AM 21,8 C 58.6%
8/7/2020 11:24:29 AM 21,3 C 64.8%
8/7/2020 11:17:28 AM 20,8 C 67.7%
8/7/2020 11:10:26 AM 20,5 C 68.1%
8/7/2020 11:03:23 AM 20,5 C 67.1%
8/7/2020 11:02:22 AM 20,4 C 72.0%
8/7/2020 10:59:05 AM 19,9 C 68.8%
8/7/2020 10:52:04 AM 20,5 C 69.9%
8/7/2020 10:47:33 AM 21,1 C 66.5%
8/7/2020 10:40:31 AM 21,2 C 65.2%
8/7/2020 10:33:44 AM 20,7 C 69.4%
8/7/2020 10:31:57 AM 20,5 C 66.2%
8/7/2020 10:28:41 AM 20,2 C 71.1%
8/7/2020 10:24:25 AM 19,5 C 74.8%
8/7/2020 10:20:38 AM 18,8 C 75.9%
8/7/2020 10:19:22 AM 18,6 C 72.5%
8/7/2020 10:17:21 AM 18,4 C 76.3%
8/7/2020 10:15:35 AM 18,1 C 79.4%
8/7/2020 10:14:33 AM 18,0 C 76.1%
8/7/2020 10:10:32 AM 17,4 C 80.7%
8/7/2020 10:07:16 AM 16,8 C 84.0%
8/7/2020 10:02:59 AM 16,2 C 87.5%
8/7/2020 9:55:58 AM 15,7 C 88.7%
8/7/2020 9:48:55 AM 15,5 C 89.3%
8/7/2020 9:41:53 AM 15,1 C 90.1%
8/7/2020 9:34:52 AM 14,7 C 90.3%
8/7/2020 9:27:50 AM 14,8 C 90.2%
8/7/2020 9:20:47 AM 14,8 C 89.6%
8/7/2020 9:13:45 AM 14,9 C 90.9%
8/7/2020 9:06:43 AM 14,6 C 91.6%
8/7/2020 8:59:41 AM 14,1 C 91.5%
8/7/2020 8:52:39 AM 13,9 C 91.5%
8/7/2020 8:45:36 AM 13,7 C 91.7%
8/7/2020 8:38:36 AM 13,5 C 91.7%
8/7/2020 8:31:33 AM 13,5 C 90.2%
8/7/2020 8:24:31 AM 13,6 C 90.4%
8/7/2020 8:17:29 AM 13,5 C 90.2%
8/7/2020 8:10:27 AM 13,6 C 90.4%
8/7/2020 8:03:26 AM 13,6 C 90.4%
8/7/2020 7:56:24 AM 13,5 C 90.6%
8/7/2020 7:49:23 AM 13,5 C 90.8%
8/7/2020 7:42:20 AM 13,4 C 90.8%
8/7/2020 7:35:18 AM 13,4 C 90.9%
8/7/2020 7:28:16 AM 13,4 C 90.8%
8/7/2020 7:21:16 AM 13,4 C 90.8%
8/7/2020 7:14:12 AM 13,4 C 91.0%
8/7/2020 7:07:10 AM 13,4 C 90.8%
8/7/2020 7:00:08 AM 13,4 C 90.9%
8/7/2020 6:53:06 AM 13,4 C 90.9%
8/7/2020 6:46:05 AM 13,5 C 90.7%
8/7/2020 6:39:02 AM 13,5 C 90.6%
8/7/2020 6:32:01 AM 13,5 C 90.5%
8/7/2020 6:24:59 AM 13,6 C 90.2%
8/7/2020 6:17:58 AM 13,6 C 89.6%
8/7/2020 6:10:55 AM 13,5 C 89.4%
8/7/2020 6:03:53 AM 13,5 C 89.8%
8/7/2020 5:56:51 AM 13,5 C 89.8%
8/7/2020 5:49:49 AM 13,6 C 89.9%
8/7/2020 5:42:47 AM 13,6 C 90.0%
8/7/2020 5:35:46 AM 13,7 C 89.9%
8/7/2020 5:28:44 AM 13,7 C 89.5%
8/7/2020 5:21:42 AM 13,6 C 89.5%
8/7/2020 5:14:39 AM 13,6 C 89.7%
8/7/2020 5:07:37 AM 13,6 C 89.9%
8/7/2020 5:00:37 AM 13,5 C 89.9%
8/7/2020 4:53:33 AM 13,5 C 90.2%
8/7/2020 4:46:31 AM 13,5 C 90.5%
8/7/2020 4:39:30 AM 13,5 C 90.3%
8/7/2020 4:32:30 AM 13,5 C 90.3%
8/7/2020 4:11:23 AM 13,7 C 89.7%
8/7/2020 4:04:21 AM 13,7 C 89.5%
8/7/2020 3:57:18 AM 13,8 C 89.2%
8/7/2020 3:50:17 AM 13,9 C 88.8%
8/7/2020 3:43:15 AM 14,0 C 88.6%
8/7/2020 3:36:12 AM 14,0 C 88.4%
8/7/2020 3:29:11 AM 14,1 C 88.6%
8/7/2020 3:22:09 AM 14,1 C 88.4%
8/7/2020 3:15:06 AM 14,1 C 88.5%
8/7/2020 3:08:04 AM 14,2 C 88.4%
8/7/2020 3:01:03 AM 14,2 C 88.1%
8/7/2020 2:54:01 AM 14,3 C 87.5%
8/7/2020 2:46:58 AM 14,3 C 87.8%
8/7/2020 2:39:56 AM 14,3 C 87.5%
8/7/2020 2:32:54 AM 14,5 C 87.7%
8/7/2020 2:25:53 AM 14,6 C 88.1%
8/7/2020 2:18:51 AM 14,6 C 87.9%
8/7/2020 2:11:48 AM 14,6 C 88.2%
8/7/2020 2:04:46 AM 14,6 C 88.3%
8/7/2020 1:57:45 AM 14,4 C 87.9%
8/7/2020 1:50:43 AM 14,3 C 88.6%
8/7/2020 1:43:40 AM 14,4 C 88.5%
8/7/2020 1:36:39 AM 14,5 C 87.9%
8/7/2020 1:29:37 AM 14,6 C 87.7%
8/7/2020 1:22:35 AM 14,7 C 88.6%
8/7/2020 1:15:34 AM 14,7 C 88.5%
8/7/2020 1:08:32 AM 14,7 C 88.9%
8/7/2020 1:01:30 AM 14,6 C 88.7%
8/7/2020 12:54:28 AM 14,6 C 88.8%
8/7/2020 12:47:25 AM 14,6 C 88.6%
8/7/2020 12:40:25 AM 14,6 C 88.6%
8/7/2020 12:33:22 AM 14,6 C 88.2%
8/7/2020 12:26:21 AM 14,6 C 88.3%
8/7/2020 12:19:19 AM 14,7 C 88.5%
8/7/2020 12:12:19 AM 14,8 C 88.5%
8/7/2020 12:05:15 AM 14,9 C 88.2%